| time (UTC) | temp C | wind direction | speed KPH | gust KPH | rain 1hr cm | rain 24hr cm | rain mn cm | humidity % | barometer mb |
| 20260503034116 | 16 | 190 | 1.6 | 3.2 | 0.00 | 0.00 | 0.00 | 38 | 1010.1 |
| 20260503033616 | 17 | 267 | 1.6 | 3.2 | 0.00 | 0.00 | 0.00 | 37 | 1010.1 |
| 20260503033120 | 17 | 205 | 1.6 | 4.8 | 0.00 | 0.00 | 0.00 | 36 | 1010.0 |
| 20260503032619 | 17 | 193 | 1.6 | 4.8 | 0.00 | 0.00 | 0.00 | 35 | 1010.0 |
| 20260503032123 | 17 | 197 | 1.6 | 3.2 | 0.00 | 0.00 | 0.00 | 35 | 1010.0 |
| 20260503031618 | 17 | 200 | 1.6 | 3.2 | 0.00 | 0.00 | 0.00 | 35 | 1010.1 |
| 20260503031118 | 17 | 207 | 1.6 | 3.2 | 0.00 | 0.00 | 0.00 | 33 | 1010.1 |
| 20260503030621 | 18 | 190 | 1.6 | 3.2 | 0.00 | 0.00 | 0.00 | 33 | 1010.1 |
| 20260503030118 | 18 | 218 | 1.6 | 3.2 | 0.00 | 0.00 | 0.00 | 32 | 1010.2 |
| 20260503025622 | 18 | 222 | 1.6 | 4.8 | 0.00 | 0.00 | 0.00 | 30 | 1010.2 |
| 20260503025119 | 18 | 216 | 1.6 | 6.4 | 0.00 | 0.00 | 0.00 | 30 | 1010.2 |
| 20260503024614 | 19 | 270 | 1.6 | 6.4 | 0.00 | 0.00 | 0.00 | 30 | 1010.3 |
| 20260503024114 | 19 | 285 | 3.2 | 9.7 | 0.00 | 0.00 | 0.00 | 30 | 1010.3 |
| 20260503023615 | 20 | 293 | 3.2 | 9.7 | 0.00 | 0.00 | 0.00 | 29 | 1010.2 |
| 20260503023113 | 20 | 307 | 3.2 | 9.7 | 0.00 | 0.00 | 0.00 | 29 | 1010.2 |
| 20260503022613 | 20 | 297 | 3.2 | 9.7 | 0.00 | 0.00 | 0.00 | 29 | 1010.1 |
| 20260503022112 | 20 | 296 | 3.2 | 9.7 | 0.00 | 0.00 | 0.00 | 29 | 1010.1 |
| 20260503021612 | 20 | 302 | 4.8 | 12.9 | 0.00 | 0.00 | 0.00 | 29 | 1010.1 |
| 20260503020613 | 20 | 304 | 4.8 | 14.5 | 0.00 | 0.00 | 0.00 | 29 | 1010.0 |
| 20260503020119 | 20 | 209 | 4.8 | 14.5 | 0.00 | 0.00 | 0.00 | 30 | 1010.1 |
| 20260503015613 | 20 | 270 | 4.8 | 11.3 | 0.00 | 0.00 | 0.00 | 30 | 1010.1 |
| 20260503015118 | 20 | 276 | 6.4 | 11.3 | 0.00 | 0.00 | 0.00 | 29 | 1010.0 |
| 20260503013612 | 21 | 242 | 4.8 | 12.9 | 0.00 | 0.00 | 0.00 | 29 | 1010.2 |
| 20260503013112 | 21 | 327 | 3.2 | 12.9 | 0.00 | 0.00 | 0.00 | 29 | 1010.3 |
| 20260503012614 | 21 | 275 | 4.8 | 14.5 | 0.00 | 0.00 | 0.00 | 28 | 1010.5 |
| 20260503011612 | 21 | 247 | 4.8 | 17.7 | 0.00 | 0.00 | 0.00 | 28 | 1010.3 |
| 20260503010612 | 21 | 229 | 6.4 | 17.7 | 0.00 | 0.00 | 0.00 | 29 | 1010.2 |
| 20260503005612 | 22 | 278 | 3.2 | 11.3 | 0.00 | 0.00 | 0.00 | 28 | 1010.7 |
| 20260503004610 | 22 | 274 | 4.8 | 16.1 | 0.00 | 0.00 | 0.00 | 28 | 1010.7 |
| 20260503004110 | 22 | 318 | 6.4 | 17.7 | 0.00 | 0.00 | 0.00 | 28 | 1010.7 |
| 20260503003612 | 22 | 286 | 6.4 | 17.7 | 0.00 | 0.00 | 0.00 | 28 | 1010.8 |
| 20260503003110 | 22 | 293 | 6.4 | 17.7 | 0.00 | 0.00 | 0.00 | 28 | 1010.7 |
| 20260503002110 | 22 | 237 | 4.8 | 16.1 | 0.00 | 0.00 | 0.00 | 28 | 1010.8 |
| 20260503001610 | 22 | 203 | 6.4 | 19.3 | 0.00 | 0.00 | 0.00 | 28 | 1010.7 |
| 20260503001110 | 21 | 275 | 6.4 | 24.1 | 0.00 | 0.00 | 0.00 | 29 | 1011.0 |
| 20260503000609 | 21 | 264 | 6.4 | 24.1 | 0.00 | 0.00 | 0.00 | 29 | 1011.4 |
| 20260503000108 | 22 | 320 | 6.4 | 16.1 | 0.00 | 0.00 | 0.00 | 28 | 1011.7 |
| 20260502235609 | 22 | 276 | 6.4 | 20.9 | 0.00 | 0.00 | 0.00 | 28 | 1011.6 |
| 20260502234608 | 22 | 238 | 6.4 | 16.1 | 0.00 | 0.00 | 0.00 | 28 | 1011.4 |
| 20260502234108 | 21 | 272 | 6.4 | 17.7 | 0.00 | 0.00 | 0.00 | 29 | 1011.4 |
| 20260502233608 | 21 | 208 | 6.4 | 17.7 | 0.00 | 0.00 | 0.00 | 29 | 1011.7 |
| 20260502232608 | 21 | 285 | 8.0 | 20.9 | 0.00 | 0.00 | 0.00 | 29 | 1012.1 |
| 20260502231608 | 22 | 252 | 8.0 | 19.3 | 0.00 | 0.00 | 0.00 | 29 | 1011.9 |
| 20260502231109 | 22 | 238 | 6.4 | 24.1 | 0.00 | 0.00 | 0.00 | 29 | 1012.1 |
| 20260502230608 | 22 | 247 | 6.4 | 24.1 | 0.00 | 0.00 | 0.00 | 28 | 1012.2 |
| 20260502225608 | 22 | 323 | 6.4 | 17.7 | 0.00 | 0.00 | 0.00 | 29 | 1012.3 |
| 20260502225108 | 22 | 86 | 8.0 | 24.1 | 0.00 | 0.00 | 0.00 | 29 | 1012.5 |
| 20260502224608 | 22 | 280 | 6.4 | 24.1 | 0.00 | 0.00 | 0.00 | 28 | 1012.5 |
| 20260502224108 | 22 | 270 | 6.4 | 20.9 | 0.00 | 0.00 | 0.00 | 28 | 1012.5 |
| 20260502223608 | 22 | 286 | 6.4 | 20.9 | 0.00 | 0.00 | 0.00 | 29 | 1012.7 |
| 20260502223111 | 22 | 271 | 6.4 | 20.9 | 0.00 | 0.00 | 0.00 | 29 | 1012.6 |
| 20260502222608 | 22 | 241 | 6.4 | 20.9 | 0.00 | 0.00 | 0.00 | 29 | 1012.8 |
| 20260502222108 | 22 | 259 | 6.4 | 20.9 | 0.00 | 0.00 | 0.00 | 29 | 1012.9 |
| 20260502221608 | 22 | 306 | 6.4 | 19.3 | 0.00 | 0.00 | 0.00 | 29 | 1013.0 |
| 20260502221106 | 21 | 326 | 6.4 | 20.9 | 0.00 | 0.00 | 0.00 | 30 | 1013.1 |
| 20260502220607 | 21 | 271 | 6.4 | 20.9 | 0.00 | 0.00 | 0.00 | 30 | 1013.2 |
| 20260502220107 | 21 | 225 | 6.4 | 19.3 | 0.00 | 0.00 | 0.00 | 29 | 1013.1 |
| 20260502215607 | 21 | 234 | 6.4 | 20.9 | 0.00 | 0.00 | 0.00 | 29 | 1013.3 |
| 20260502214608 | 21 | 265 | 8.0 | 24.1 | 0.00 | 0.00 | 0.00 | 29 | 1013.6 |
| 20260502214108 | 21 | 224 | 6.4 | 17.7 | 0.00 | 0.00 | 0.00 | 29 | 1013.6 |
| 20260502213606 | 21 | 242 | 6.4 | 17.7 | 0.00 | 0.00 | 0.00 | 29 | 1013.7 |
| 20260502213108 | 21 | 258 | 6.4 | 20.9 | 0.00 | 0.00 | 0.00 | 30 | 1013.8 |
| 20260502212606 | 21 | 225 | 6.4 | 20.9 | 0.00 | 0.00 | 0.00 | 30 | 1013.7 |
| 20260502211605 | 20 | 147 | 8.0 | 22.5 | 0.00 | 0.00 | 0.00 | 29 | 1014.0 |
| 20260502211105 | 21 | 253 | 8.0 | 22.5 | 0.00 | 0.00 | 0.00 | 29 | 1014.2 |
| 20260502210116 | 21 | 194 | 6.4 | 17.7 | 0.00 | 0.00 | 0.00 | 29 | 1014.2 |
| 20260502205605 | 21 | 292 | 4.8 | 14.5 | 0.00 | 0.00 | 0.00 | 29 | 1014.1 |
| 20260502205105 | 21 | 313 | 6.4 | 19.3 | 0.00 | 0.00 | 0.00 | 29 | 1014.1 |
| 20260502204606 | 21 | 262 | 6.4 | 19.3 | 0.00 | 0.00 | 0.00 | 30 | 1014.3 |
| 20260502203605 | 21 | 198 | 4.8 | 12.9 | 0.00 | 0.00 | 0.00 | 29 | 1014.2 |
| 20260502203106 | 21 | 339 | 6.4 | 17.7 | 0.00 | 0.00 | 0.00 | 29 | 1014.4 |
| 20260502202608 | 21 | 317 | 6.4 | 17.7 | 0.00 | 0.00 | 0.00 | 29 | 1014.8 |
| 20260502202105 | 21 | 323 | 6.4 | 17.7 | 0.00 | 0.00 | 0.00 | 29 | 1014.6 |
| 20260502201605 | 21 | 42 | 6.4 | 17.7 | 0.00 | 0.00 | 0.00 | 30 | 1014.7 |
| 20260502201105 | 21 | 296 | 6.4 | 16.1 | 0.00 | 0.00 | 0.00 | 29 | 1014.9 |
| 20260502200105 | 21 | 300 | 4.8 | 14.5 | 0.00 | 0.00 | 0.00 | 29 | 1014.9 |
| 20260502195607 | 20 | 41 | 6.4 | 14.5 | 0.00 | 0.00 | 0.00 | 30 | 1015.1 |
| 20260502194605 | 20 | 297 | 6.4 | 24.1 | 0.00 | 0.00 | 0.00 | 31 | 1015.4 |
| 20260502194105 | 20 | 341 | 6.4 | 17.7 | 0.00 | 0.00 | 0.00 | 29 | 1015.3 |
| 20260502193605 | 20 | 348 | 6.4 | 24.1 | 0.00 | 0.00 | 0.00 | 29 | 1015.4 |
| 20260502193103 | 20 | 316 | 6.4 | 24.1 | 0.00 | 0.00 | 0.00 | 30 | 1015.6 |
| 20260502192603 | 19 | 125 | 6.4 | 17.7 | 0.00 | 0.00 | 0.00 | 30 | 1015.5 |
| 20260502192104 | 20 | 250 | 6.4 | 17.7 | 0.00 | 0.00 | 0.00 | 30 | 1015.6 |
| 20260502191603 | 20 | 286 | 4.8 | 16.1 | 0.00 | 0.00 | 0.00 | 30 | 1015.7 |
| 20260502190604 | 19 | 258 | 6.4 | 17.7 | 0.00 | 0.00 | 0.00 | 32 | 1015.7 |
| 20260502185604 | 19 | 319 | 6.4 | 20.9 | 0.00 | 0.00 | 0.00 | 31 | 1015.8 |
| 20260502185104 | 19 | 288 | 6.4 | 20.9 | 0.00 | 0.00 | 0.00 | 31 | 1016.1 |
| 20260502184603 | 19 | 312 | 4.8 | 14.5 | 0.00 | 0.00 | 0.00 | 31 | 1016.0 |
| 20260502184103 | 19 | 341 | 4.8 | 14.5 | 0.00 | 0.00 | 0.00 | 31 | 1015.9 |
| 20260502183603 | 19 | 320 | 4.8 | 14.5 | 0.00 | 0.00 | 0.00 | 32 | 1016.1 |
| 20260502183103 | 18 | 336 | 6.4 | 19.3 | 0.00 | 0.00 | 0.00 | 33 | 1016.1 |
| 20260502182602 | 18 | 255 | 6.4 | 19.3 | 0.00 | 0.00 | 0.00 | 33 | 1016.4 |
| 20260502182104 | 18 | 308 | 4.8 | 16.1 | 0.00 | 0.00 | 0.00 | 33 | 1016.4 |
| 20260502181605 | 18 | 109 | 3.2 | 9.7 | 0.00 | 0.00 | 0.00 | 33 | 1016.4 |
| 20260502181103 | 18 | 193 | 4.8 | 14.5 | 0.00 | 0.00 | 0.00 | 34 | 1016.4 |
| 20260502180604 | 18 | 157 | 4.8 | 14.5 | 0.00 | 0.00 | 0.00 | 34 | 1016.7 |
| 20260502180104 | 18 | 179 | 4.8 | 12.9 | 0.00 | 0.00 | 0.00 | 33 | 1016.8 |
| 20260502164100 | 15 | 57 | 4.8 | 12.9 | 0.00 | 0.00 | 0.00 | 39 | 1017.5 |
| 20260502163601 | 15 | 20 | 6.4 | 14.5 | 0.00 | 0.00 | 0.00 | 39 | 1017.7 |
| 20260502163101 | 15 | 210 | 6.4 | 14.5 | 0.00 | 0.00 | 0.00 | 40 | 1017.6 |
| 20260502162100 | 15 | 167 | 4.8 | 11.3 | 0.00 | 0.00 | 0.00 | 41 | 1017.6 |
| 20260502161101 | 15 | 233 | 3.2 | 9.7 | 0.00 | 0.00 | 0.00 | 42 | 1017.6 |
| 20260502160601 | 14 | 260 | 3.2 | 9.7 | 0.00 | 0.00 | 0.00 | 44 | 1017.6 |
| 20260502151556 | 11 | 157 | 4.8 | 9.7 | 0.00 | 0.00 | 0.00 | 56 | 1018.4 |
| 20260502151057 | 10 | 214 | 3.2 | 9.7 | 0.00 | 0.00 | 0.00 | 57 | 1018.5 |
| 20260502150601 | 10 | 219 | 3.2 | 8.0 | 0.00 | 0.00 | 0.00 | 57 | 1018.5 |
| 20260502130549 | 2 | 197 | 3.2 | 6.4 | 0.00 | 0.00 | 0.00 | 82 | 1019.7 |
| 20260502123552 | 2 | 177 | 1.6 | 4.8 | 0.00 | 0.00 | 0.00 | 84 | 1019.7 |
| 20260502123049 | 2 | 193 | 1.6 | 4.8 | 0.00 | 0.00 | 0.00 | 84 | 1019.7 |
| 20260502122548 | 2 | 148 | 1.6 | 4.8 | 0.00 | 0.00 | 0.00 | 83 | 1019.8 |
| 20260502122048 | 2 | 163 | 3.2 | 4.8 | 0.00 | 0.00 | 0.00 | 83 | 1019.8 |
| 20260502121548 | 2 | 167 | 3.2 | 4.8 | 0.00 | 0.00 | 0.00 | 84 | 1019.7 |
| 20260502121049 | 2 | 167 | 3.2 | 4.8 | 0.00 | 0.00 | 0.00 | 83 | 1019.7 |
| 20260502120551 | 2 | 144 | 3.2 | 4.8 | 0.00 | 0.00 | 0.00 | 83 | 1019.7 |
| 20260502115546 | 2 | 152 | 3.2 | 4.8 | 0.00 | 0.00 | 0.00 | 83 | 1019.5 |
| 20260502115046 | 2 | 154 | 3.2 | 6.4 | 0.00 | 0.00 | 0.00 | 83 | 1019.5 |
| 20260502114546 | 2 | 157 | 3.2 | 6.4 | 0.00 | 0.00 | 0.00 | 83 | 1019.5 |
| 20260502113045 | 2 | 150 | 3.2 | 4.8 | 0.00 | 0.00 | 0.00 | 83 | 1019.7 |
| 20260502112044 | 2 | 151 | 1.6 | 4.8 | 0.00 | 0.00 | 0.00 | 83 | 1019.7 |
| 20260502111545 | 2 | 150 | 1.6 | 4.8 | 0.00 | 0.00 | 0.00 | 83 | 1019.5 |
| 20260502111047 | 2 | 171 | 1.6 | 4.8 | 0.00 | 0.00 | 0.00 | 83 | 1019.7 |
| 20260502110043 | 2 | 164 | 1.6 | 4.8 | 0.00 | 0.00 | 0.00 | 82 | 1019.8 |
| 20260502105546 | 2 | 164 | 1.6 | 4.8 | 0.00 | 0.00 | 0.00 | 82 | 1019.7 |
| 20260502105044 | 2 | 129 | 1.6 | 4.8 | 0.00 | 0.00 | 0.00 | 82 | 1019.5 |
| 20260502104542 | 2 | 160 | 1.6 | 4.8 | 0.00 | 0.00 | 0.00 | 82 | 1019.7 |
| 20260502104043 | 2 | 156 | 3.2 | 4.8 | 0.00 | 0.00 | 0.00 | 82 | 1019.7 |
| 20260502103544 | 2 | 142 | 3.2 | 4.8 | 0.00 | 0.00 | 0.00 | 82 | 1019.7 |
| 20260502103043 | 2 | 140 | 3.2 | 4.8 | 0.00 | 0.00 | 0.00 | 81 | 1019.7 |
| 20260502102544 | 3 | 139 | 1.6 | 4.8 | 0.00 | 0.00 | 0.00 | 81 | 1019.8 |
| 20260502102043 | 3 | 162 | 1.6 | 4.8 | 0.00 | 0.00 | 0.00 | 80 | 1019.8 |
| 20260502101544 | 3 | 183 | 3.2 | 4.8 | 0.00 | 0.00 | 0.00 | 80 | 1019.5 |
| 20260502101043 | 3 | 156 | 3.2 | 4.8 | 0.00 | 0.00 | 0.00 | 80 | 1019.5 |
| 20260502100543 | 3 | 135 | 3.2 | 6.4 | 0.00 | 0.00 | 0.00 | 81 | 1019.4 |
| 20260502091038 | 3 | 208 | 3.2 | 6.4 | 0.00 | 0.00 | 0.00 | 80 | 1019.3 |
| 20260502090540 | 3 | 165 | 3.2 | 6.4 | 0.00 | 0.00 | 0.00 | 80 | 1019.3 |
| 20260502071035 | 6 | 241 | 0.0 | 1.6 | 0.00 | 0.00 | 0.00 | 74 | 1018.8 |
| 20260502070534 | 6 | 0 | 0.0 | 1.6 | 0.00 | 0.00 | 0.00 | 73 | 1018.9 |
| 20260502070036 | 6 | 0 | 0.0 | 1.6 | 0.00 | 0.00 | 0.00 | 72 | 1019.0 |
| 20260502065535 | 6 | 0 | 0.0 | 3.2 | 0.00 | 0.00 | 0.00 | 72 | 1019.0 |
| 20260502065034 | 6 | 123 | 0.0 | 3.2 | 0.00 | 0.00 | 0.00 | 72 | 1018.9 |
| 20260502064035 | 6 | 0 | 0.0 | 1.6 | 0.00 | 0.00 | 0.00 | 71 | 1019.1 |
| 20260502063534 | 6 | 0 | 0.0 | 1.6 | 0.00 | 0.00 | 0.00 | 71 | 1019.1 |
| 20260502063037 | 7 | 0 | 0.0 | 1.6 | 0.00 | 0.00 | 0.00 | 70 | 1019.0 |
| 20260502062535 | 7 | 0 | 0.0 | 1.6 | 0.00 | 0.00 | 0.00 | 70 | 1018.8 |
| 20260502062036 | 7 | 0 | 0.0 | 3.2 | 0.00 | 0.00 | 0.00 | 69 | 1018.7 |
| 20260502061535 | 7 | 325 | 1.6 | 3.2 | 0.00 | 0.00 | 0.00 | 69 | 1018.7 |
| 20260502061034 | 7 | 350 | 1.6 | 3.2 | 0.00 | 0.00 | 0.00 | 68 | 1018.6 |
| 20260502060035 | 7 | 328 | 1.6 | 3.2 | 0.00 | 0.00 | 0.00 | 67 | 1018.6 |
| 20260502055541 | 7 | 327 | 1.6 | 4.8 | 0.00 | 0.00 | 0.00 | 67 | 1018.5 |
| 20260502055031 | 8 | 300 | 1.6 | 4.8 | 0.00 | 0.00 | 0.00 | 67 | 1018.5 |
| 20260502054531 | 8 | 341 | 1.6 | 3.2 | 0.00 | 0.00 | 0.00 | 66 | 1018.5 |
| 20260502054031 | 8 | 339 | 1.6 | 3.2 | 0.00 | 0.00 | 0.00 | 65 | 1018.6 |
| 20260502053531 | 8 | 286 | 0.0 | 1.6 | 0.00 | 0.00 | 0.00 | 65 | 1018.7 |
| 20260502052531 | 8 | 0 | 0.0 | 3.2 | 0.00 | 0.00 | 0.00 | 63 | 1018.7 |
| 20260502051529 | 9 | 304 | 1.6 | 3.2 | 0.00 | 0.00 | 0.00 | 62 | 1018.4 |
| 20260502051028 | 9 | 337 | 1.6 | 3.2 | 0.00 | 0.00 | 0.00 | 61 | 1018.4 |
| 20260502050535 | 10 | 331 | 0.0 | 3.2 | 0.00 | 0.00 | 0.00 | 61 | 1018.6 |
| 20260502050036 | 10 | 323 | 1.6 | 3.2 | 0.00 | 0.00 | 0.00 | 59 | 1018.6 |
| 20260502045530 | 10 | 313 | 1.6 | 4.8 | 0.00 | 0.00 | 0.00 | 59 | 1018.4 |
| 20260502045029 | 10 | 324 | 1.6 | 4.8 | 0.00 | 0.00 | 0.00 | 58 | 1018.4 |
| 20260502044528 | 11 | 324 | 3.2 | 4.8 | 0.00 | 0.00 | 0.00 | 57 | 1018.3 |
| 20260502044029 | 11 | 353 | 3.2 | 8.0 | 0.00 | 0.00 | 0.00 | 57 | 1018.2 |
| 20260502043532 | 11 | 350 | 3.2 | 8.0 | 0.00 | 0.00 | 0.00 | 56 | 1018.0 |
| 20260502042526 | 11 | 41 | 3.2 | 9.7 | 0.00 | 0.00 | 0.00 | 55 | 1017.9 |
| 20260502042028 | 11 | 352 | 4.8 | 9.7 | 0.00 | 0.00 | 0.00 | 55 | 1017.9 |
| 20260502041538 | 11 | 8 | 4.8 | 9.7 | 0.00 | 0.00 | 0.00 | 54 | 1017.8 |
| 20260502041026 | 12 | 338 | 4.8 | 9.7 | 0.00 | 0.00 | 0.00 | 53 | 1017.8 |
| 20260502040525 | 12 | 334 | 4.8 | 9.7 | 0.00 | 0.00 | 0.00 | 53 | 1017.8 |
| 20260502040025 | 12 | 7 | 4.8 | 12.9 | 0.00 | 0.00 | 0.00 | 52 | 1017.7 |
| 20260502035525 | 12 | 7 | 4.8 | 12.9 | 0.00 | 0.00 | 0.00 | 51 | 1017.7 |
| 20260502035026 | 12 | 338 | 6.4 | 12.9 | 0.00 | 0.00 | 0.00 | 51 | 1017.6 |